HB9Y1 Weather Reports


time (UTC)temp
F
wind
direction
speed
knots
gust
knots
rain 1hr
in
rain 24hr
in
rain mn
in
humidity
%
barometer
mb
20260507040931 34 0.0 0.0 0.00 0.95 0.00 99 1008.0
20260507035923 34 0.0 0.0 0.00 0.95 0.00 99 1008.0
20260507034931 34 0.0 0.0 0.00 0.95 0.00 99 1008.0
20260507033923 34 0.0 0.0 0.00 0.95 0.00 99 1008.0
20260507032922 34 0.0 0.0 0.00 0.95 0.00 99 1008.0
20260507031923 34 0.0 0.0 0.00 0.95 0.00 99 1008.0
20260507030931 34 0.0 0.0 0.00 0.95 0.00 99 1008.0
20260507025923 34 0.0 0.0 0.00 0.95 0.00 99 1008.0
20260507024951 34 0.0 0.0 0.00 0.95 0.00 99 1008.0
20260507023923 34 0.0 0.0 0.00 0.95 0.00 99 1008.0
20260507022931 34 0.0 0.0 0.00 0.95 0.00 99 1008.0
20260507021923 34 0.0 0.0 0.00 0.95 0.00 99 1008.0
20260507020922 34 90 0.9 4.3 0.00 0.95 0.00 99 1008.0
20260507015923 34 0.0 0.0 0.00 0.95 0.00 99 1008.0
20260507014931 34 0.0 0.0 0.00 0.95 0.00 99 1008.0
20260507013923 33 0.0 0.0 0.00 0.95 0.00 99 1007.7
20260507012931 33 0.0 0.0 0.00 0.95 0.00 99 1007.9
20260507011923 33 0.0 0.0 0.00 0.95 0.00 99 1007.6
20260507011011 33 0.0 0.0 0.00 0.95 0.00 99 1007.9
20260507005923 33 0.0 0.0 0.00 0.95 0.00 99 1007.6
20260507004942 33 0.0 0.0 0.00 0.95 0.00 99 1007.6
20260507003943 33 0.0 0.0 0.00 0.95 0.00 99 1007.6
20260507002931 33 0.0 0.0 0.00 0.95 0.00 99 1007.6
20260507001922 33 0.0 0.0 0.00 0.95 0.00 99 1007.6
20260507000931 33 0.0 0.0 0.00 0.95 0.00 99 1008.0
20260506235923 33 0.0 0.0 0.00 0.95 0.00 99 1007.6
20260506234931 33 0.0 0.0 0.00 0.95 0.00 99 1007.9
20260506233923 33 0.0 0.0 0.00 0.95 0.00 99 1007.9
20260506232942 33 0.0 0.0 0.00 0.95 0.00 99 1008.0
20260506231922 33 0.0 0.0 0.00 0.95 0.00 99 1008.0
20260506230931 33 0.0 0.0 0.00 0.95 0.00 99 1008.0
20260506225922 33 0.0 0.0 0.00 0.95 0.00 99 1008.0
20260506224930 34 0.0 0.0 0.00 0.95 0.00 99 1008.0
20260506223942 34 0.0 0.0 0.00 0.95 0.00 99 1008.0
20260506222930 34 0.0 0.0 0.00 0.95 0.00 99 1008.0
20260506221922 34 0.0 0.0 0.00 0.95 0.00 99 1007.7
20260506220921 34 0.0 0.0 0.00 0.95 0.00 99 1008.0
20260506215943 34 0.0 0.0 0.00 0.95 0.95 99 1007.6
20260506214930 34 0.0 0.0 0.00 0.95 0.95 99 1007.6
20260506214002 34 0.0 0.0 0.00 0.95 0.95 99 1007.6
20260506212931 34 0.0 0.0 0.00 0.95 0.95 99 1007.6
20260506211922 34 0.0 0.0 0.00 0.95 0.95 99 1008.0
20260506210930 34 0.0 0.0 0.00 0.95 0.95 99 1007.9
20260506205923 34 0.0 0.0 0.00 0.95 0.95 99 1007.6
20260506204940 34 0.0 0.0 0.00 0.95 0.95 99 1007.9
20260506203922 34 0.0 0.0 0.00 0.95 0.95 99 1007.6
20260506202950 34 0.0 0.0 0.00 0.95 0.95 99 1007.6
20260506201922 34 0.0 0.0 0.00 0.95 0.95 99 1007.6
20260506200929 34 0.0 0.0 0.00 0.95 0.95 99 1007.6
20260506195942 34 0.0 0.0 0.00 0.95 0.95 99 1007.2
20260506194951 34 0.0 0.0 0.00 0.95 0.95 99 1007.4
20260506193922 34 0.0 0.0 0.00 0.95 0.95 99 1007.2
20260506192921 34 0.0 0.0 0.00 0.95 0.95 99 1007.1
20260506191922 34 0.0 0.0 0.00 0.95 0.95 99 1006.8
20260506190930 34 0.0 0.0 0.00 0.95 0.95 99 1006.8
20260506185942 34 0.0 0.0 0.00 0.95 0.95 99 1006.4
20260506184930 34 0.0 0.0 0.00 0.95 0.95 99 1006.4
20260506183922 35 0.0 0.0 0.00 0.95 0.95 99 1006.0
20260506182950 35 0.0 0.0 0.00 0.95 0.95 99 1006.2
20260506181922 35 0.0 0.0 0.00 0.95 0.95 99 1006.4
20260506180921 35 0.0 0.0 0.00 0.95 0.95 99 1006.3
20260506175922 35 0.0 0.0 0.00 0.95 0.95 99 1006.0
20260506174930 35 0.0 0.0 0.00 0.95 0.95 99 1006.0
20260506173922 35 0.0 0.0 0.03 0.95 0.95 99 1006.0
20260506172950 36 0.0 0.0 0.03 0.95 0.95 99 1006.2
20260506171942 38 329 1.7 4.3 0.05 0.95 0.95 99 1006.4
20260506170930 41 322 3.5 8.7 0.12 0.95 0.95 99 1006.0
20260506165922 42 0.0 0.0 0.23 0.95 0.95 94 1005.9
20260506164921 42 0.0 0.0 0.40 0.95 0.95 83 1005.7
20260506163922 42 0.0 0.0 0.55 0.92 0.92 91 1005.8
20260506162950 42 0.0 0.0 0.66 0.92 0.92 88 1005.6
20260506161922 42 0.0 0.0 0.72 0.90 0.90 94 1006.0
20260506160950 43 0.0 0.0 0.70 0.83 0.83 86 1005.8
20260506155922 45 0.0 0.0 0.61 0.72 0.72 85 1005.6
20260506154930 46 0.0 0.0 0.44 0.55 0.55 83 1005.6
20260506153922 46 0.0 0.0 0.26 0.37 0.37 85 1005.3
20260506152921 45 0.0 0.0 0.15 0.26 0.26 86 1005.2
20260506151922 42 0.0 0.0 0.07 0.18 0.18 73 1005.2
20260506150930 39 0.0 0.0 0.02 0.13 0.13 87 1005.2
20260506145922 37 0.0 0.0 0.00 0.11 0.11 94 1005.2
20260506144930 36 0.0 0.0 0.00 0.11 0.11 96 1005.2
20260506143922 36 0.0 0.0 0.00 0.11 0.11 97 1005.2
20260506142930 36 0.0 0.0 0.00 0.11 0.11 98 1005.6
20260506141922 36 0.0 0.0 0.00 0.11 0.11 99 1005.7
20260506140921 35 0.0 0.0 0.00 0.11 0.11 99 1005.6
20260506135922 34 0.0 0.0 0.00 0.11 0.11 99 1005.6
20260506134930 33 0.0 0.0 0.00 0.11 0.11 99 1006.0
20260506133922 33 0.0 0.0 0.00 0.11 0.11 99 1006.0
20260506132950 33 0.0 0.0 0.00 0.11 0.11 99 1006.0
20260506131921 33 0.0 0.0 0.00 0.11 0.11 99 1005.6
20260506130930 32 0.0 0.0 0.00 0.11 0.11 99 1005.8
20260506125922 32 0.0 0.0 0.00 0.11 0.11 99 1005.6
20260506124930 32 0.0 0.0 0.00 0.11 0.11 99 1005.2
20260506123922 33 0.0 0.0 0.00 0.11 0.11 99 1004.8
20260506122930 33 0.0 0.0 0.00 0.11 0.11 99 1004.8
20260506121942 33 0.0 0.0 0.00 0.11 0.11 99 1004.8
20260506120950 33 0.0 0.0 0.00 0.11 0.11 99 1004.8
20260506115922 33 0.0 0.0 0.00 0.11 0.11 99 1004.8
20260506115010 33 0.0 0.0 0.00 0.11 0.11 99 1004.8
20260506113922 33 0.0 0.0 0.00 0.11 0.11 99 1004.7
20260506112930 33 0.0 0.0 0.00 0.11 0.11 99 1004.7
20260506111922 33 0.0 0.0 0.00 0.11 0.11 99 1004.6
20260506110930 33 0.0 0.0 0.00 0.11 0.11 99 1004.4
20260506105922 33 0.0 0.0 0.00 0.11 0.11 99 1004.4
20260506104929 33 0.0 0.0 0.00 0.11 0.11 99 1004.4
20260506103922 33 0.0 0.0 0.00 0.11 0.11 99 1004.4
20260506102949 33 0.0 0.0 0.00 0.11 0.11 99 1004.4
20260506101942 33 0.0 0.0 0.00 0.11 0.11 99 1004.4
20260506100921 34 0.0 0.0 0.00 0.11 0.11 99 1004.3
20260506095922 34 0.0 0.0 0.00 0.11 0.11 99 1004.2
20260506094929 35 0.0 0.0 0.00 0.11 0.11 99 1004.0
20260506093921 35 0.0 0.0 0.00 0.11 0.11 99 1004.0
20260506092930 35 0.0 0.0 0.00 0.11 0.11 99 1004.0
20260506091921 35 0.0 0.0 0.01 0.11 0.11 99 1004.0
20260506090930 35 0.0 0.0 0.02 0.11 0.11 99 1004.0
20260506085922 36 0.0 0.0 0.02 0.11 0.11 99 1004.0
20260506084929 36 0.0 0.0 0.02 0.11 0.11 99 1003.7
20260506083921 35 0.0 0.0 0.02 0.11 0.11 99 1003.6
20260506082929 35 0.0 0.0 0.02 0.11 0.11 99 1003.6
20260506081942 34 0.0 0.0 0.04 0.10 0.10 99 1003.6
20260506080930 34 0.0 0.0 0.04 0.09 0.09 99 1003.6
20260506072921 36 0.0 0.0 0.09 0.09 0.09 99 1004.0
20260506071921 37 0.0 0.0 0.06 0.06 0.06 99 1003.8
20260506070929 38 0.0 0.0 0.05 0.05 0.05 99 1003.6
20260506061921 40 0.0 0.0 0.00 0.01 0.00 91 1003.9
20260506060921 40 0.0 0.0 0.00 0.01 0.00 90 1003.6
20260506050929 40 0.0 0.0 0.00 0.03 0.00 90 1004.0
20260506044921 40 0.0 0.0 0.00 0.03 0.00 88 1004.0
20260506043921 40 0.0 0.0 0.00 0.03 0.00 85 1004.4
20260506042929 39 0.0 0.0 0.00 0.03 0.00 86 1004.4
20260506041921 39 0.0 0.0 0.00 0.03 0.00 87 1004.3